Valparaiso, IN

11:09 AM CST on November 19, 2017 (GMT -0600)
Porter County Municipal

Weather History for KVPZ - June, 2013

Change the Weather History Date:

Wednesday, June 26, 2013

  Actual Average Record
Temperature  
Mean Temperature 73 °F 72 °F  
Max Temperature 81 °F 82 °F 93 °F (1998)
Min Temperature 65 °F 62 °F 50 °F (2004)
Degree Days  
Heating Degree Days 0 0  
Month to date heating degree days 37 41  
Since 1 June heating degree days 37 41  
Since 1 July heating degree days 6093 6320  
Cooling Degree Days 8 7  
Month to date cooling degree days 135 134  
Year to date cooling degree days 236 181  
Since 1 June cooling degree days 135 134  
Growing Degree Days 22 (Base 50)    
Moisture  
Dew Point 67 °F    
Average Humidity 88    
Maximum Humidity 100    
Minimum Humidity 71    
Precipitation  
Precipitation 1.31 in 0.15 in 1.31 in (2013)
Month to date precipitation 6.92 3.38  
Year to date precipitation 20.55 16.36  
Sea Level Pressure  
Sea Level Pressure 29.81 in    
Wind  
Wind Speed 7 mph (ESE)    
Max Wind Speed 22 mph    
Max Gust Speed 29 mph    
Visibility 8 miles    
Events Rain    
T = Trace of Precipitation, MM = Missing Value Source: NWS Daily Summary

Daily Weather History Graph

Daily Weather History Graph

Search for Another Location

Airport or City:

Trip Planner

Search our weather history database for the weather conditions in past years. The results will help you decide how hot, cold, wet, or windy it might be!

Date:

Astronomy

Jun. 26, 2013 Rise Set
Actual Time 5:16 AM CDT 8:25 PM CDT
Civil Twilight 4:42 AM CDT 8:59 PM CDT
Nautical Twilight 3:58 AM CDT 9:43 PM CDT
Astronomical Twilight 3:06 AM CDT 10:35 PM CDT
Moon 10:45 PM CDT (6/26) 9:09 AM CDT (6/26)
Length of Visible Light 16h 17m
Length of Day
15h 09m
Waning Gibbous, 85% of the Moon is Illuminated
Jun 26
Waning Gibbous
Jun 29
Last Quarter
Jul 8
New
Jul 15
First Quarter
Jul 22
Full

Hourly Weather History & Observations

Time (CDT) Temp. Heat Index Dew Point Humidity Pressure Visibility Wind Dir Wind Speed Gust Speed Precip Events Conditions
12:53 AM 70.0 °F - 64.0 °F 81% 29.85 in 10.0 mi SSW 5.8 mph - N/A   Clear
1:53 AM 69.1 °F - 64.9 °F 87% 29.83 in 10.0 mi South 8.1 mph - N/A   Partly Cloudy
2:53 AM 69.1 °F - 66.0 °F 90% 29.83 in 10.0 mi East 3.5 mph - N/A   Overcast
3:53 AM 68.0 °F - 66.0 °F 93% 29.82 in 10.0 mi East 9.2 mph - N/A   Overcast
4:53 AM 68.0 °F - 66.0 °F 93% 29.82 in 10.0 mi ESE 8.1 mph - N/A   Overcast
5:51 AM 68.0 °F - 66.2 °F 94% 29.85 in 10.0 mi ENE 8.1 mph - N/A   Overcast
5:53 AM 68.0 °F - 66.0 °F 93% 29.84 in 10.0 mi ENE 6.9 mph - N/A   Overcast
6:23 AM 69.8 °F - 66.2 °F 88% 29.86 in 10.0 mi East 13.8 mph - N/A   Overcast
6:53 AM 68.0 °F - 66.0 °F 93% 29.86 in 4.0 mi ENE 12.7 mph - 0.12 in Rain Light Rain
7:01 AM 68.0 °F - 66.2 °F 94% 29.87 in 2.5 mi NE 16.1 mph 20.7 mph 0.06 in Rain Rain
7:10 AM 66.2 °F - 64.4 °F 94% 29.89 in 1.0 mi NE 12.7 mph 28.8 mph 0.30 in Rain Heavy Rain
7:31 AM 66.2 °F - 64.4 °F 94% 29.91 in 1.8 mi NNE 10.4 mph 24.2 mph 0.62 in Rain Heavy Rain
7:53 AM 64.9 °F - 64.0 °F 97% 29.89 in 1.0 mi ENE 6.9 mph 17.3 mph 0.98 in Rain Heavy Rain
8:01 AM 64.4 °F - 64.4 °F 100% 29.92 in 1.8 mi Calm Calm - 0.05 in Rain Rain
8:20 AM 64.4 °F - 64.4 °F 100% 29.90 in 3.0 mi East 9.2 mph - 0.20 in Rain Light Rain
8:53 AM 66.9 °F - 64.0 °F 90% 29.87 in 10.0 mi East 9.2 mph - 0.21 in   Mostly Cloudy
9:53 AM 70.0 °F - 66.0 °F 87% 29.82 in 10.0 mi ESE 9.2 mph 20.7 mph N/A   Partly Cloudy
10:53 AM 73.0 °F - 66.0 °F 79% 29.83 in 10.0 mi SE 9.2 mph - N/A   Mostly Cloudy
11:53 AM 75.9 °F - 69.1 °F 79% 29.78 in 10.0 mi SSE 9.2 mph - N/A   Mostly Cloudy
12:53 PM 79.0 °F - 70.0 °F 74% 29.78 in 10.0 mi SSE 13.8 mph 24.2 mph N/A   Partly Cloudy
1:07 PM 78.8 °F - 69.8 °F 74% 29.80 in 9.0 mi SSE 15.0 mph 20.7 mph N/A   Mostly Cloudy
1:53 PM 79.0 °F - 71.1 °F 77% 29.78 in 8.0 mi SSW 13.8 mph 18.4 mph N/A   Mostly Cloudy
2:14 PM 80.6 °F 84.6 °F 71.6 °F 74% 29.78 in 10.0 mi SSW 10.4 mph - N/A   Mostly Cloudy
2:53 PM 80.1 °F 83.2 °F 70.0 °F 71% 29.76 in 10.0 mi SSW 10.4 mph - N/A   Mostly Cloudy
3:53 PM 79.0 °F - 71.1 °F 77% 29.74 in 10.0 mi WSW 5.8 mph - N/A   Overcast
4:53 PM 78.1 °F - 71.1 °F 79% 29.74 in 10.0 mi South 4.6 mph - N/A   Overcast
5:53 PM 73.9 °F - 68.0 °F 82% 29.75 in 10.0 mi South 4.6 mph - N/A   Overcast
6:53 PM 73.9 °F - 69.1 °F 85% 29.74 in 10.0 mi SSW 4.6 mph - N/A   Scattered Clouds
7:53 PM 73.0 °F - 69.1 °F 87% 29.74 in 10.0 mi SE 3.5 mph - N/A   Scattered Clouds
8:53 PM 72.0 °F - 69.1 °F 91% 29.75 in 10.0 mi ENE 3.5 mph - N/A   Scattered Clouds
9:53 PM 71.1 °F - 69.1 °F 93% 29.75 in 9.0 mi NE 3.5 mph - N/A   Mostly Cloudy
10:24 PM 71.6 °F - 69.8 °F 94% 29.77 in 9.0 mi Calm Calm - N/A   Mostly Cloudy
10:53 PM 71.1 °F - 69.1 °F 93% 29.76 in 9.0 mi Calm Calm - N/A   Mostly Cloudy
11:46 PM 71.6 °F - 69.8 °F 94% 29.78 in 9.0 mi Calm Calm - N/A   Overcast
11:53 PM 71.1 °F - 69.1 °F 93% 29.76 in 8.0 mi Calm Calm - N/A   Overcast